Location: Waco, TX
(31.5480°N, 97.1670°W)
Time: 13:49:15

ISS - Pass Details

Date: 21 March 2018
Orbit: 403 x 406 km, 51.6° (Epoch: 23 March)

Event Time Altitude Azimuth Distance (km) Brightness Sun altitude
Rises 05:48:03 0° 317° (NW) 2,323 - -22.6°
Reaches altitude 10° 05:50:09 10° 320° (NW) 1,460 - -22.1°
Maximum altitude 05:53:25 70° 45° (NE) 430 - -21.4°
Exits shadow 05:53:42 64° 87° (E) 449 -3.5 -21.4°
Drops below altitude 10° 05:56:39 10° 129° (SE) 1,451 -0.6 -20.8°
Sets 05:58:44 0° 132° (SE) 2,306 0.5 -20.3°
